Location: Vinland
(47.7731°N, 122.6974°W)
Time: 05:32:34
(UTC+00:00)

Vanguard 2 - Pass Details

Date: 23 April 2024
Orbit: 552 x 2914 km, 32.9° (Epoch: 25 May)

Event Time Altitude Azimuth Distance (km) Brightness Sun altitude
Exits shadow 09:59:12 34° 205° (SSW) 3,750 10.4 -24.7°
Maximum altitude 10:05:13 44° 166° (SSE) 3,540 10.5 -24.2°
Drops below altitude 10° 10:21:12 10° 103° (ESE) 5,665 12.2 -22.7°
Sets 10:25:41 0° 97° (E) 6,552 12.7 -22.2°
